Terug naar catalogus

STARLINK-3283

ActiefCommunicatieVLEO
NORAD 50179·PAYLOAD·🇺🇸 United States

Gelanceerd Dec 18, 2021 vanaf Vandenberg Space Force Base

Loading…

Volgende Passages (komende 24 uur)

TLE

VersSource: CelesTrak SupGP

Epoch: Sep 14, 2026, 21:05 UTC

1 50179C 21125Z   26257.87895833 -.00016704  00000+0 -53730-3 0  2573
2 50179  53.1568 107.9378 0001248  87.7356 324.4176 15.31701511    11

Volg STARLINK-3283 in realtime met AllMySat

Download on the App Store